Location: Newark
(41.0400°S, 62.7845°W)
Time: 23:15:07
(UTC+00:00)

Vanguard 2 - Pass Details

Date: 05 December 2021
Orbit: 554 x 2935 km, 32.9° (Epoch: 27 January)

Event Time Altitude Azimuth Distance (km) Brightness Sun altitude
Rises 07:10:50 0° 274° (W) 6,754 11.9 -12.9°
Reaches altitude 10° 07:15:39 10° 277° (W) 5,614 11.4 -12.2°
Maximum altitude 07:31:29 59° 350° (N) 2,447 9.8 -10.1°
Drops below altitude 10° 07:41:43 10° 66° (ENE) 3,766 11.4 -8.6°
Sets 07:44:18 0° 70° (ENE) 4,475 11.9 -8.2°
